Regional Weather Roundup
Issued by NWS

Home | Current Version | Previous Version | Graphics & Text | Print | Product List | Glossary On
Versions: 1 2 3 4 5 6 7 8 9 10 11 12 13 14 15 16 17 18 19 20 21 22 23 24 25 26 27 28 29 30 31 32 33 34 35 36 37 38 39 40 41 42 43 44 45 46 47 48 49 50
000
ASUS43 KBIS 092110
RWRND

NORTH DAKOTA REGIONAL WEATHER ROUNDUP
NATIONAL WEATHER SERVICE BISMARCK ND
300 PM CST TUE FEB 09 2016

NOTE: "FAIR" INDICATES FEW OR NO CLOUDS BELOW 12,000 FEET WITH NO
SIGNIFICANT WEATHER AND/OR OBSTRUCTIONS TO VISIBILITY.


NDZ001>003-009>011-017-092200-
NORTHWEST NORTH DAKOTA

CITY           SKY/WX    TMP DP  RH WIND       PRES   REMARKS
WILLISTON      CLOUDY    37  23  56 VRB6      30.14F
MINOT          CLOUDY    38  16  40 N5        30.14S
MINOT AFB      MOSUNNY   35  19  50 CALM      30.13F
$$

NDZ018>021-031>035-040>046-092200-
SOUTHWEST NORTH DAKOTA

CITY           SKY/WX    TMP DP  RH WIND       PRES   REMARKS
BISMARCK       CLOUDY    41  16  36 NW7       30.15F
DICKINSON      CLOUDY    37  22  54 NW13      30.10F
GARRISON         N/A     37  18  46 N8        30.13F
HETTINGER ARPT CLOUDY    43  22  43 NW16      30.12F
$$

NDZ004>008-012>016-024-026-027-054-092200-
NORTHEAST NORTH DAKOTA

CITY           SKY/WX    TMP DP  RH WIND       PRES   REMARKS
GRAND FORKS    PTSUNNY   11   3  70 N14       30.28F WCI  -5
GRND FRKS AFB  CLOUDY    10   3  71 N10       30.28R WCI  -4
DEVILS LAKE    CLOUDY    15   9  76 NE12      30.22S WCI   2
$$

NDZ022-023-025-028>030-036>039-047>053-092200-
SOUTHEAST NORTH DAKOTA

CITY           SKY/WX    TMP DP  RH WIND       PRES   REMARKS
FARGO          CLOUDY    14   5  67 N15       30.26S WCI  -1
JAMESTOWN      CLOUDY    24   9  52 NE5       30.18F WCI  18
$$




USA.gov is the U.S. government's official web portal to all federal, state and local government web resources and services.